Location: Asheville, NC
(35.6000°N, 82.5500°W)
Time: 12:58:26
(UTC-05:00)

CUTE 1.7 + AOD 2 - Pass Details

Date: 05 January 2018
Orbit: 595 x 613 km, 97.6° (Epoch: 16 January)

Event Time Altitude Azimuth Distance (km) Brightness Sun altitude
Rises 18:54:55 0° 174° (S) 2,859 ? -16.6°
Reaches altitude 10° 18:57:06 10° 177° (S) 1,959 ? -17.0°
Maximum altitude 19:01:20 65° 259° (W) 673 ? -17.8°
Drops below altitude 10° 19:05:36 10° 342° (NNW) 1,972 ? -18.7°
Sets 19:07:49 0° 345° (NNW) 2,880 ? -19.1°
